This is the latest recevied weather packets stored in our database for station/object WC4PEM-7. If no packets are shown the sender has not sent any weather packets the latest 10 day(s).
| Time | Temp. | Humidity | Pressure | Rain* | Wind** | Luminosity | Snow |
|---|---|---|---|---|---|---|---|
| 1777215120 | 26.67° C | 71% | 1012.3 hPa | 0 mm | - | - | - |
| 1777214954 | 26.67° C | 71% | 1012.3 hPa | 0 mm | - | - | - |
| 1777214654 | 26.67° C | 72% | 1012.3 hPa | 0 mm | - | - | - |
| 1777214354 | 26.67° C | 72% | 1012.5 hPa | 0 mm | - | - | - |
| 1777214054 | 26.67° C | 75% | 1012.4 hPa | 0 mm | - | - | - |
| 1777213754 | 26.11° C | 74% | 1012.5 hPa | 0 mm | - | - | - |
| 1777213454 | 26.11° C | 75% | 1012.4 hPa | 0 mm | - | - | - |
| 1777213154 | 26.11° C | 76% | 1012.4 hPa | 0 mm | - | - | - |
| 1777212854 | 25.56° C | 78% | 1012.4 hPa | 0 mm | - | - | - |
| 1777212554 | 25.56° C | 78% | 1012.4 hPa | 0 mm | - | - | - |
| 1777212497 | 25° C | 81% | 1012.5 hPa | 0 mm | - | - | - |
| 1777212421 | 25° C | 80% | 1012.4 hPa | 0 mm | - | - | - |
| 1777212254 | 25° C | 80% | 1012.4 hPa | 0 mm | - | - | - |
| 1777212107 | 25° C | 81% | 1012.5 hPa | 0 mm | - | - | - |
| 1777211954 | 25° C | 81% | 1012.5 hPa | 0 mm | - | - | - |
| 1777211654 | 24.44° C | 81% | 1012.5 hPa | 0 mm | - | - | - |
| 1777211354 | 25° C | 81% | 1012.5 hPa | 0 mm | - | - | - |
| 1777211189 | 24.44° C | 82% | 1012.5 hPa | 0 mm | - | - | - |
| 1777211054 | 25° C | 82% | 1012.5 hPa | 0 mm | - | - | - |
| 1777210754 | 24.44° C | 82% | 1012.5 hPa | 0 mm | - | - | - |
| 1777210640 | 23.89° C | 84% | 1012.6 hPa | 0 mm | - | - | - |
| 1777210454 | 24.44° C | 82% | 1012.6 hPa | 0 mm | - | - | - |
| 1777210155 | 23.89° C | 83% | 1012.6 hPa | 0 mm | - | - | - |
| 1777210093 | 23.89° C | 84% | 1012.6 hPa | 0 mm | - | - | - |
| 1777209854 | 23.89° C | 84% | 1012.6 hPa | 0 mm | - | - | - |
* Rain latest hour (hover to see other rain measurements)
** Current wind speed in m/s (hover to see current wind gust speed)